Time,TemperatureF,DewpointF,PressureIn,WindDirection,WindDirectionDegrees,WindSpeedMPH,WindSpeedGustMPH,Humidity,HourlyPrecipIn,Conditions,Clouds,dailyrainin,SoftwareType,DateUTC
2013-01-24 00:03:00,40.0,27.0,-100.00,SW,225,3.0,6.0,59,-99.99,,,-99.99,,2013-01-24 05:03:00,
2013-01-24 00:12:00,40.0,27.0,-100.00,SW,225,3.0,6.0,59,-99.99,,,-99.99,,2013-01-24 05:12:00,
2013-01-24 00:23:00,41.0,28.0,-100.00,SW,235,4.0,8.0,59,-99.99,,,-99.99,,2013-01-24 05:23:00,
2013-01-24 00:33:00,41.0,27.0,-100.00,SW,230,3.0,6.0,59,-99.99,,,-99.99,,2013-01-24 05:33:00,
2013-01-24 00:43:00,41.0,27.0,-100.00,SW,225,5.0,9.0,59,-99.99,,,-99.99,,2013-01-24 05:43:00,
2013-01-24 00:53:00,41.0,27.0,-100.00,SW,225,5.0,9.0,59,-99.99,,,-99.99,,2013-01-24 05:53:00,
2013-01-24 01:03:00,41.0,28.0,-100.00,WSW,240,4.0,7.0,59,-99.99,,,-99.99,,2013-01-24 06:03:00,
2013-01-24 01:12:00,41.0,27.0,-100.00,WNW,285,2.0,4.0,59,-99.99,,,-99.99,,2013-01-24 06:12:00,
2013-01-24 01:22:00,40.0,27.0,-100.00,WNW,290,3.0,6.0,60,-99.99,,,-99.99,,2013-01-24 06:22:00,
2013-01-24 01:32:00,39.0,27.0,-100.00,WSW,250,3.0,5.0,62,-99.99,,,-99.99,,2013-01-24 06:32:00,
2013-01-24 01:42:00,37.0,26.0,-100.00,West,260,2.0,5.0,64,-99.99,,,-99.99,,2013-01-24 06:42:00,
2013-01-24 01:52:00,37.0,26.0,-100.00,West,260,2.0,5.0,64,-99.99,,,-99.99,,2013-01-24 06:52:00,
2013-01-24 02:03:00,38.0,27.0,-100.00,WSW,255,2.0,4.0,65,-99.99,,,-99.99,,2013-01-24 07:03:00,
2013-01-24 02:12:00,37.0,27.0,-100.00,WSW,240,0.0,2.0,66,-99.99,,,-99.99,,2013-01-24 07:12:00,
2013-01-24 02:23:00,36.0,26.0,-100.00,NW,315,1.0,1.0,68,-99.99,,,-99.99,,2013-01-24 07:23:00,
2013-01-24 02:33:00,34.0,25.0,-100.00,North,10,2.0,4.0,71,-99.99,,,-99.99,,2013-01-24 07:33:00,
2013-01-24 02:43:00,33.0,26.0,-100.00,NNW,335,1.0,4.0,75,-99.99,,,-99.99,,2013-01-24 07:43:00,
2013-01-24 02:52:00,33.0,26.0,-100.00,NNW,335,1.0,4.0,75,-99.99,,,-99.99,,2013-01-24 07:52:00,
2013-01-24 03:03:00,32.0,27.0,-100.00,West,260,1.0,4.0,82,-99.99,,,-99.99,,2013-01-24 08:03:00,
2013-01-24 03:13:00,31.0,27.0,-100.00,North,350,4.0,4.0,84,-99.99,,,-99.99,,2013-01-24 08:13:00,
2013-01-24 03:23:00,31.0,28.0,-100.00,SW,215,1.0,2.0,86,-99.99,,,-99.99,,2013-01-24 08:23:00,
2013-01-24 03:33:00,31.0,28.0,-100.00,NW,325,0.0,4.0,87,-99.99,,,-99.99,,2013-01-24 08:33:00,
2013-01-24 03:43:00,32.0,29.0,-100.00,NW,315,3.0,5.0,88,-99.99,,,-99.99,,2013-01-24 08:43:00,
2013-01-24 03:53:00,32.0,29.0,-100.00,NW,315,3.0,5.0,88,-99.99,,,-99.99,,2013-01-24 08:53:00,
2013-01-24 04:03:00,31.0,28.0,-100.00,NW,325,1.0,4.0,89,-99.99,,,-99.99,,2013-01-24 09:03:00,
2013-01-24 04:13:00,30.0,28.0,-100.00,NNW,335,0.0,2.0,90,-99.99,,,-99.99,,2013-01-24 09:13:00,
2013-01-24 04:23:00,31.0,29.0,-100.00,SSW,210,2.0,3.0,92,-99.99,,,-99.99,,2013-01-24 09:23:00,
2013-01-24 04:33:00,31.0,29.0,-100.00,SW,215,1.0,4.0,93,-99.99,,,-99.99,,2013-01-24 09:33:00,
2013-01-24 04:43:00,31.0,30.0,-100.00,SSW,195,1.0,2.0,93,-99.99,,,-99.99,,2013-01-24 09:43:00,
2013-01-24 04:53:00,31.0,30.0,-100.00,SSW,195,1.0,2.0,93,-99.99,,,-99.99,,2013-01-24 09:53:00,
2013-01-24 05:03:00,31.0,29.0,-100.00,SW,220,1.0,2.0,93,-99.99,,,-99.99,,2013-01-24 10:03:00,
2013-01-24 05:12:00,31.0,29.0,-100.00,SW,225,1.0,3.0,94,-99.99,,,-99.99,,2013-01-24 10:12:00,
2013-01-24 05:23:00,30.0,29.0,-100.00,North,0,4.0,7.0,94,-99.99,,,-99.99,,2013-01-24 10:23:00,
2013-01-24 05:33:00,30.0,29.0,-100.00,NW,305,4.0,10.0,95,-99.99,,,-99.99,,2013-01-24 10:33:00,
2013-01-24 05:43:00,30.0,29.0,-100.00,SSW,195,2.0,8.0,96,-99.99,,,-99.99,,2013-01-24 10:43:00,
2013-01-24 05:52:00,30.0,29.0,-100.00,SSW,195,2.0,8.0,96,-99.99,,,-99.99,,2013-01-24 10:52:00,
2013-01-24 06:03:00,30.0,29.0,-100.00,NNE,15,1.0,5.0,97,-99.99,,,-99.99,,2013-01-24 11:03:00,
2013-01-24 06:12:00,29.0,29.0,-100.00,WSW,250,1.0,5.0,98,-99.99,,,-99.99,,2013-01-24 11:12:00,
2013-01-24 06:23:00,29.0,29.0,-100.00,SE,140,1.0,4.0,99,-99.99,,,-99.99,,2013-01-24 11:23:00,
2013-01-24 06:33:00,29.0,29.0,-100.00,South,190,1.0,4.0,99,-99.99,,,-99.99,,2013-01-24 11:33:00,
2013-01-24 06:43:00,29.0,29.0,-100.00,North,350,0.0,4.0,99,-99.99,,,-99.99,,2013-01-24 11:43:00,
2013-01-24 06:53:00,29.0,29.0,-100.00,North,350,0.0,4.0,99,-99.99,,,-99.99,,2013-01-24 11:53:00,
2013-01-24 07:03:00,29.0,29.0,-100.00,NNW,340,6.0,9.0,99,-99.99,,,-99.99,,2013-01-24 12:03:00,
2013-01-24 07:12:00,31.0,31.0,-100.00,NW,325,6.0,10.0,99,-99.99,,,-99.99,,2013-01-24 12:12:00,
2013-01-24 07:23:00,32.0,31.0,-100.00,NW,305,4.0,6.0,97,-99.99,,,-99.99,,2013-01-24 12:23:00,
2013-01-24 07:33:00,33.0,31.0,-100.00,NW,305,6.0,7.0,94,-99.99,,,-99.99,,2013-01-24 12:33:00,
2013-01-24 07:43:00,35.0,32.0,-100.00,NW,320,5.0,9.0,89,-99.99,,,-99.99,,2013-01-24 12:43:00,
2013-01-24 07:53:00,35.0,32.0,-100.00,NW,320,5.0,9.0,89,-99.99,,,-99.99,,2013-01-24 12:53:00,
2013-01-24 08:03:00,40.0,32.0,-100.00,NW,315,4.0,10.0,72,-99.99,,,-99.99,,2013-01-24 13:03:00,
2013-01-24 08:13:00,42.0,32.0,-100.00,WNW,295,7.0,17.0,65,-99.99,,,-99.99,,2013-01-24 13:13:00,
2013-01-24 08:23:00,43.0,31.0,-100.00,WNW,290,5.0,13.0,62,-99.99,,,-99.99,,2013-01-24 13:23:00,
2013-01-24 08:33:00,43.0,31.0,-100.00,WNW,290,5.0,13.0,62,-99.99,,,-99.99,,2013-01-24 13:33:00,
2013-01-24 08:43:00,44.0,31.0,-100.00,WNW,295,6.0,13.0,59,-99.99,,,-99.99,,2013-01-24 13:43:00,
2013-01-24 08:53:00,44.0,31.0,-100.00,WNW,295,6.0,13.0,59,-99.99,,,-99.99,,2013-01-24 13:53:00,
2013-01-24 09:03:00,46.0,31.0,-100.00,NW,325,4.0,10.0,56,-99.99,,,-99.99,,2013-01-24 14:03:00,
2013-01-24 09:12:00,46.0,31.0,-100.00,NW,315,4.0,13.0,54,-99.99,,,-99.99,,2013-01-24 14:12:00,
2013-01-24 09:23:00,47.0,30.0,-100.00,NW,320,6.0,11.0,52,-99.99,,,-99.99,,2013-01-24 14:23:00,
2013-01-24 09:33:00,47.0,30.0,-100.00,WNW,295,4.0,12.0,51,-99.99,,,-99.99,,2013-01-24 14:33:00,
2013-01-24 09:43:00,47.0,29.0,-100.00,WNW,300,9.0,19.0,49,-99.99,,,-99.99,,2013-01-24 14:43:00,
2013-01-24 09:53:00,47.0,29.0,-100.00,WNW,300,9.0,19.0,49,-99.99,,,-99.99,,2013-01-24 14:53:00,
2013-01-24 10:04:00,47.0,27.0,-100.00,NW,320,8.0,16.0,45,-99.99,,,-99.99,,2013-01-24 15:04:00,
2013-01-24 10:13:00,47.0,26.0,-100.00,NW,315,8.0,20.0,43,-99.99,,,-99.99,,2013-01-24 15:13:00,
2013-01-24 10:23:00,47.0,25.0,-100.00,WNW,290,11.0,21.0,41,-99.99,,,-99.99,,2013-01-24 15:23:00,
2013-01-24 10:33:00,47.0,25.0,-100.00,WNW,290,11.0,21.0,41,-99.99,,,-99.99,,2013-01-24 15:33:00,
2013-01-24 10:43:00,47.0,23.0,-100.00,NNE,25,11.0,17.0,38,-99.99,,,-99.99,,2013-01-24 15:43:00,
2013-01-24 10:53:00,47.0,23.0,-100.00,NNE,25,11.0,17.0,38,-99.99,,,-99.99,,2013-01-24 15:53:00,
2013-01-24 11:04:00,47.0,22.0,-100.00,NW,305,10.0,20.0,36,-99.99,,,-99.99,,2013-01-24 16:04:00,
2013-01-24 11:12:00,47.0,21.0,-100.00,North,5,10.0,17.0,35,-99.99,,,-99.99,,2013-01-24 16:12:00,
2013-01-24 11:23:00,48.0,20.0,-100.00,NNW,345,11.0,16.0,33,-99.99,,,-99.99,,2013-01-24 16:23:00,
2013-01-24 11:33:00,47.0,20.0,-100.00,North,0,14.0,26.0,33,-99.99,,,-99.99,,2013-01-24 16:33:00,
2013-01-24 11:43:00,47.0,20.0,-100.00,North,0,14.0,26.0,33,-99.99,,,-99.99,,2013-01-24 16:43:00,
2013-01-24 12:03:00,46.0,19.0,-100.00,NNW,345,14.0,26.0,33,-99.99,,,-99.99,,2013-01-24 17:03:00,
2013-01-24 12:12:00,47.0,20.0,-100.00,North,0,11.0,19.0,33,-99.99,,,-99.99,,2013-01-24 17:12:00,
2013-01-24 12:22:00,47.0,20.0,-100.00,North,0,11.0,19.0,33,-99.99,,,-99.99,,2013-01-24 17:22:00,
2013-01-24 12:32:00,46.0,19.0,-100.00,NNW,345,16.0,27.0,34,-99.99,,,-99.99,,2013-01-24 17:32:00,
2013-01-24 12:42:00,45.0,18.0,-100.00,North,350,17.0,29.0,33,-99.99,,,-99.99,,2013-01-24 17:42:00,
2013-01-24 12:52:00,45.0,18.0,-100.00,North,350,17.0,29.0,33,-99.99,,,-99.99,,2013-01-24 17:52:00,
2013-01-24 13:03:00,46.0,17.0,-100.00,NNW,330,19.0,31.0,31,-99.99,,,-99.99,,2013-01-24 18:03:00,
2013-01-24 13:12:00,46.0,17.0,-100.00,NNW,330,11.0,26.0,31,-99.99,,,-99.99,,2013-01-24 18:12:00,
2013-01-24 13:23:00,46.0,17.0,-100.00,NW,310,16.0,30.0,30,-99.99,,,-99.99,,2013-01-24 18:23:00,
2013-01-24 13:33:00,46.0,17.0,-100.00,NNW,335,16.0,29.0,30,-99.99,,,-99.99,,2013-01-24 18:33:00,
2013-01-24 13:42:00,46.0,16.0,-100.00,NNE,15,16.0,34.0,30,-99.99,,,-99.99,,2013-01-24 18:42:00,
2013-01-24 13:53:00,46.0,16.0,-100.00,NNE,15,16.0,34.0,30,-99.99,,,-99.99,,2013-01-24 18:53:00,
2013-01-24 14:02:00,47.0,16.0,-100.00,NNW,345,14.0,25.0,29,-99.99,,,-99.99,,2013-01-24 19:02:00,
2013-01-24 14:12:00,47.0,16.0,-100.00,NNW,345,14.0,24.0,28,-99.99,,,-99.99,,2013-01-24 19:12:00,
2013-01-24 14:22:00,47.0,16.0,-100.00,NNW,330,14.0,29.0,28,-99.99,,,-99.99,,2013-01-24 19:22:00,
2013-01-24 14:33:00,47.0,15.0,-100.00,NNW,345,15.0,28.0,27,-99.99,,,-99.99,,2013-01-24 19:33:00,
2013-01-24 14:42:00,48.0,14.0,-100.00,NNW,330,10.0,26.0,26,-99.99,,,-99.99,,2013-01-24 19:42:00,
2013-01-24 14:52:00,47.0,14.0,-100.00,NW,320,14.0,26.0,26,-99.99,,,-99.99,,2013-01-24 19:52:00,
2013-01-24 15:02:00,47.0,14.0,-100.00,NW,320,14.0,26.0,26,-99.99,,,-99.99,,2013-01-24 20:02:00,
2013-01-24 15:12:00,49.0,13.0,-100.00,NNW,330,14.0,26.0,24,-99.99,,,-99.99,,2013-01-24 20:12:00,
2013-01-24 15:22:00,50.0,13.0,-100.00,NNW,345,11.0,25.0,22,-99.99,,,-99.99,,2013-01-24 20:22:00,
2013-01-24 15:33:00,49.0,12.0,-100.00,North,350,6.0,15.0,22,-99.99,,,-99.99,,2013-01-24 20:33:00,
2013-01-24 15:42:00,50.0,14.0,-100.00,North,350,5.0,14.0,23,-99.99,,,-99.99,,2013-01-24 20:42:00,
2013-01-24 15:52:00,48.0,13.0,-100.00,North,5,9.0,21.0,24,-99.99,,,-99.99,,2013-01-24 20:52:00,
2013-01-24 16:03:00,47.0,13.0,-100.00,NNE,20,7.0,19.0,24,-99.99,,,-99.99,,2013-01-24 21:03:00,
2013-01-24 16:12:00,47.0,12.0,-100.00,North,5,8.0,21.0,24,-99.99,,,-99.99,,2013-01-24 21:12:00,
2013-01-24 16:23:00,47.0,12.0,-100.00,North,5,10.0,16.0,24,-99.99,,,-99.99,,2013-01-24 21:23:00,
2013-01-24 16:33:00,48.0,13.0,-100.00,NNW,335,7.0,9.0,24,-99.99,,,-99.99,,2013-01-24 21:33:00,
2013-01-24 16:43:00,47.0,12.0,-100.00,North,0,11.0,19.0,24,-99.99,,,-99.99,,2013-01-24 21:43:00,
2013-01-24 16:52:00,47.0,12.0,-100.00,NW,325,8.0,19.0,24,-99.99,,,-99.99,,2013-01-24 21:52:00,
2013-01-24 17:03:00,46.0,13.0,-100.00,NE,40,5.0,13.0,25,-99.99,,,-99.99,,2013-01-24 22:03:00,
2013-01-24 17:12:00,46.0,13.0,-100.00,NE,35,4.0,9.0,26,-99.99,,,-99.99,,2013-01-24 22:12:00,
2013-01-24 17:22:00,46.0,14.0,-100.00,North,0,4.0,10.0,27,-99.99,,,-99.99,,2013-01-24 22:22:00,
2013-01-24 17:33:00,45.0,14.0,-100.00,North,0,6.0,11.0,28,-99.99,,,-99.99,,2013-01-24 22:33:00,
2013-01-24 17:42:00,45.0,14.0,-100.00,NE,40,3.0,10.0,29,-99.99,,,-99.99,,2013-01-24 22:42:00,
2013-01-24 17:52:00,45.0,14.0,-100.00,NE,40,3.0,10.0,29,-99.99,,,-99.99,,2013-01-24 22:52:00,
2013-01-24 18:03:00,44.0,14.0,-100.00,North,355,6.0,10.0,30,-99.99,,,-99.99,,2013-01-24 23:03:00,
2013-01-24 18:12:00,43.0,14.0,-100.00,East,80,6.0,9.0,31,-99.99,,,-99.99,,2013-01-24 23:12:00,
2013-01-24 18:22:00,42.0,14.0,-100.00,North,5,4.0,11.0,31,-99.99,,,-99.99,,2013-01-24 23:22:00,
2013-01-24 18:32:00,41.0,13.0,-100.00,East,90,6.0,9.0,31,-99.99,,,-99.99,,2013-01-24 23:32:00,
2013-01-24 18:42:00,41.0,12.0,-100.00,North,350,6.0,13.0,31,-99.99,,,-99.99,,2013-01-24 23:42:00,
2013-01-24 18:52:00,40.0,12.0,-100.00,ENE,60,5.0,8.0,31,-99.99,,,-99.99,,2013-01-24 23:52:00,
2013-01-24 19:02:00,39.0,12.0,-100.00,NE,55,3.0,6.0,32,-99.99,,,-99.99,,2013-01-25 00:02:00,
2013-01-24 19:12:00,39.0,12.0,-100.00,ENE,65,4.0,9.0,32,-99.99,,,-99.99,,2013-01-25 00:12:00,
2013-01-24 19:22:00,38.0,11.0,-100.00,East,95,11.0,17.0,33,-99.99,,,-99.99,,2013-01-25 00:22:00,
2013-01-24 19:32:00,36.0,11.0,-100.00,East,90,9.0,16.0,35,-99.99,,,-99.99,,2013-01-25 00:32:00,
2013-01-24 19:42:00,36.0,11.0,-100.00,ENE,65,6.0,19.0,35,-99.99,,,-99.99,,2013-01-25 00:42:00,
2013-01-24 19:52:00,35.0,11.0,-100.00,NE,55,6.0,12.0,36,-99.99,,,-99.99,,2013-01-25 00:52:00,
2013-01-24 20:02:00,34.0,11.0,-100.00,ENE,65,9.0,14.0,37,-99.99,,,-99.99,,2013-01-25 01:02:00,
2013-01-24 20:12:00,34.0,10.0,-100.00,ENE,65,6.0,15.0,37,-99.99,,,-99.99,,2013-01-25 01:12:00,
2013-01-24 20:22:00,33.0,10.0,-100.00,ENE,70,9.0,12.0,38,-99.99,,,-99.99,,2013-01-25 01:22:00,
2013-01-24 20:32:00,33.0,10.0,-100.00,East,80,9.0,14.0,38,-99.99,,,-99.99,,2013-01-25 01:32:00,
2013-01-24 20:42:00,32.0,10.0,-100.00,East,80,9.0,14.0,38,-99.99,,,-99.99,,2013-01-25 01:42:00,
2013-01-24 20:52:00,32.0,10.0,-100.00,East,80,9.0,14.0,38,-99.99,,,-99.99,,2013-01-25 01:52:00,
2013-01-24 21:03:00,31.0,9.0,-100.00,ENE,70,4.0,11.0,39,-99.99,,,-99.99,,2013-01-25 02:03:00,
2013-01-24 21:12:00,31.0,9.0,-100.00,NE,40,3.0,7.0,39,-99.99,,,-99.99,,2013-01-25 02:12:00,
2013-01-24 21:22:00,31.0,9.0,-100.00,NE,55,4.0,7.0,39,-99.99,,,-99.99,,2013-01-25 02:22:00,
2013-01-24 21:33:00,30.0,8.0,-100.00,ENE,60,5.0,11.0,39,-99.99,,,-99.99,,2013-01-25 02:33:00,
2013-01-24 21:42:00,30.0,9.0,-100.00,East,80,5.0,11.0,40,-99.99,,,-99.99,,2013-01-25 02:42:00,
2013-01-24 21:52:00,30.0,9.0,-100.00,East,80,5.0,11.0,40,-99.99,,,-99.99,,2013-01-25 02:52:00,
2013-01-24 22:02:00,30.0,8.0,-100.00,East,85,4.0,11.0,40,-99.99,,,-99.99,,2013-01-25 03:02:00,
2013-01-24 22:12:00,29.0,8.0,-100.00,ENE,65,4.0,11.0,40,-99.99,,,-99.99,,2013-01-25 03:12:00,
2013-01-24 22:22:00,29.0,8.0,-100.00,ENE,65,4.0,9.0,40,-99.99,,,-99.99,,2013-01-25 03:22:00,
2013-01-24 22:33:00,29.0,8.0,-100.00,ENE,60,4.0,6.0,40,-99.99,,,-99.99,,2013-01-25 03:33:00,
2013-01-24 22:42:00,28.0,7.0,-100.00,North,0,1.0,5.0,40,-99.99,,,-99.99,,2013-01-25 03:42:00,
2013-01-24 22:52:00,28.0,7.0,-100.00,North,0,1.0,5.0,40,-99.99,,,-99.99,,2013-01-25 03:52:00,
2013-01-24 23:02:00,28.0,7.0,-100.00,ENE,65,1.0,4.0,40,-99.99,,,-99.99,,2013-01-25 04:02:00,
2013-01-24 23:12:00,28.0,7.0,-100.00,NE,35,3.0,7.0,40,-99.99,,,-99.99,,2013-01-25 04:12:00,
2013-01-24 23:22:00,28.0,7.0,-100.00,NNE,30,2.0,5.0,41,-99.99,,,-99.99,,2013-01-25 04:22:00,
2013-01-24 23:32:00,27.0,7.0,-100.00,NNW,340,0.0,4.0,41,-99.99,,,-99.99,,2013-01-25 04:32:00,
2013-01-24 23:42:00,27.0,7.0,-100.00,North,0,1.0,3.0,42,-99.99,,,-99.99,,2013-01-25 04:42:00,
2013-01-24 23:51:00,27.0,7.0,-100.00,North,0,1.0,3.0,42,-99.99,,,-99.99,,2013-01-25 04:51:00,